Home   Weather   Peristeri   Past weeks

Flag for Greece Past Weather in Peristeri, Greece — Yesterday and Last 2 Weeks

Now
61 °F

Clear.


Feels Like: 61 °F
Forecast: 53 / 74 °F
Wind: 3 mph from North

Location: Elefsis Airport

Current Time: Sep 25, 2016 at 6:43:31 AM

Latest Report: Sep 25, 2016 at 5:50 AM


Visibility: 10 mi

Pressure: 30.12 "Hg

Humidity: 59%

Dew Point: 46 °F

Location of PeristeriLocation

Past Weather in Peristeri — Graph

°F

Peristeri Temperature Yesterday

Maximum temperature yesterday: 77 °F (at 12:50 PM)
Minimum temperature yesterday: 59 °F (at 3:50 AM)
Average temperature yesterday: 68 °F

High & Low Weather Summary for the Past Weeks

 TemperatureHumidityPressure
High95 °F (Sep 18, 1:50 PM)88% (Sep 10, 10:50 PM)30.27 "Hg (Sep 10, 10:50 PM)
Low59 °F (Sep 23, 11:50 PM)18% (Sep 15, 3:50 PM)29.71 "Hg (Sep 20, 4:20 AM)
Average76 °F50%29.95 "Hg
* Reported Sep 10 5:20 AM — Sep 25 5:20 AM, Peristeri, Weather by CustomWeather, © 2016

Note: Actual official high and low records may vary slightly from our data, if they occured in-between our weather recording intervals... More about our weather records

Advertising

Peristeri Weather History for the Previous 24 Hours

Scroll right to see more
 ConditionsComfort  
Time TempWeatherWind HumidityBarometerVisibility
5:20 AM
Sun, Sep 25
59 °FClear.3 mph63%30.12 "Hg10 mi
4:50 AM61 °FClear.7 mph59%30.12 "Hg10 mi
4:20 AM61 °FClear.7 mph59%30.12 "Hg10 mi
3:50 AM61 °FClear.5 mph59%30.12 "Hg10 mi
3:20 AM63 °FClear.3 mph52%30.15 "Hg10 mi
2:50 AM61 °FClear.5 mph55%30.15 "Hg10 mi
2:20 AM61 °FClear.5 mph55%30.15 "Hg10 mi
1:50 AM63 °FClear.5 mph49%30.15 "Hg10 mi
1:20 AM61 °FClear.6 mph52%30.15 "Hg10 mi
12:50 AM61 °FClear.5 mph52%30.15 "Hg10 mi
12:20 AM63 °FClear.7 mph49%30.15 "Hg10 mi
11:50 PM
Sat, Sep 24
63 °FClear.7 mph49%30.15 "Hg10 mi
11:20 PM63 °FClear.5 mph49%30.18 "Hg10 mi
10:50 PM64 °FClear.6 mph46%30.18 "Hg10 mi
10:20 PM64 °FClear.7 mph46%30.18 "Hg10 mi
9:50 PM66 °FClear.7 mph43%30.18 "Hg10 mi
9:20 PM66 °FClear.6 mph43%30.18 "Hg10 mi
8:50 PM68 °FPassing clouds.6 mph38%30.18 "HgN/A
8:20 PM68 °FPassing clouds.7 mph38%30.18 "HgN/A
7:50 PM70 °FPassing clouds.8 mph33%30.18 "HgN/A
7:20 PM72 °FPassing clouds.9 mph31%30.18 "HgN/A
6:50 PM73 °FPassing clouds.9 mph27%30.18 "HgN/A
6:20 PM75 °FPassing clouds.9 mph25%30.18 "HgN/A
5:50 PM77 °FPassing clouds.12 mph26%30.18 "HgN/A
5:20 PM77 °FScattered clouds.9 mph26%30.18 "HgN/A
4:50 PM77 °FScattered clouds.9 mph26%30.18 "HgN/A
4:20 PM77 °FScattered clouds.9 mph24%30.21 "HgN/A
3:50 PM77 °FScattered clouds.9 mph24%30.18 "HgN/A
3:20 PM77 °FScattered clouds.9 mph24%30.21 "HgN/A
2:50 PM77 °FScattered clouds.9 mph24%30.21 "HgN/A
2:20 PM77 °FScattered clouds.9 mph24%30.21 "HgN/A
1:50 PM77 °FScattered clouds.9 mph26%30.21 "HgN/A
1:20 PM75 °FScattered clouds.10 mph25%30.24 "HgN/A
12:50 PM77 °FScattered clouds.12 mph24%30.24 "HgN/A
12:20 PM75 °FScattered clouds.12 mph29%30.24 "HgN/A
11:50 AM75 °FScattered clouds.12 mph29%30.24 "HgN/A
11:20 AM73 °FScattered clouds.10 mph33%30.27 "HgN/A
10:50 AM73 °FScattered clouds.10 mph33%30.27 "HgN/A
10:20 AM70 °FScattered clouds.10 mph40%30.27 "HgN/A
9:50 AM70 °FScattered clouds.10 mph40%30.27 "HgN/A
9:20 AM68 °FScattered clouds.6 mph43%30.27 "HgN/A
8:50 AM68 °FScattered clouds.6 mph43%30.27 "HgN/A
8:20 AM64 °FScattered clouds.6 mph52%30.24 "HgN/A
7:50 AM59 °FScattered clouds.6 mph59%30.24 "HgN/A
7:20 AM59 °FScattered clouds.5 mph63%30.24 "HgN/A
6:50 AM61 °FPassing clouds.6 mph59%30.24 "HgN/A
6:20 AM59 °FPassing clouds.3 mph63%30.24 "HgN/A
Weather by CustomWeather, © 2016

See weather overviewHow to use our weather pages